Location: Lavington
(51.2833°N, 1.9833°W)
Time: 19:06:01
(UTC+00:00)

Cosmos 1025 Rocket - Pass Details

Date: 01 June 2020
Orbit: 595 x 617 km, 82.5° (Epoch: 02 July)

Event Time Altitude Azimuth Distance (km) Brightness Sun altitude
Exits shadow 23:39:48 17° 225° (SW) 1,545 4.7 -16.3°
Maximum altitude 23:42:44 39° 287° (WNW) 912 4.1 -16.3°
Drops below altitude 10° 23:46:49 10° 357° (N) 1,960 7.0 -16.4°
Sets 23:49:10 0° 6° (N) 2,872 8.2 -16.4°
